ASA345 PAJN-PANC

Flight info

Callsign ASA345
Flight time 1h 34m
Altitude 38000
Route ASORT2 ASORT ELLAM
Aircraft B38M/M-SDE1FGHILORVWXY/HB1

Departure

Time 2026-04-20 23:45
Airport Juneau International Airport (PAJN)

Arrival

Time 2026-04-21 01:19
Airport Ted Stevens Anchorage International Airport (PANC)
Time Latitude Longitude Altitude Speed Heading
2026-04-20 23:13 58.35876 -134.58474 37 ft 0 kts 102°
2026-04-20 23:34 58.35876 -134.58479 37 ft 3 kts 102°
2026-04-20 23:35 58.35880 -134.58514 37 ft 3 kts 102°
2026-04-20 23:35 58.35888 -134.58582 37 ft 1 kts 102°
2026-04-20 23:35 58.35888 -134.58584 37 ft 0 kts 102°
2026-04-20 23:39 58.35887 -134.58582 37 ft 0 kts 113°
2026-04-20 23:39 58.35886 -134.58580 37 ft 1 kts 127°
2026-04-20 23:40 58.35881 -134.58575 36 ft 2 kts 153°
2026-04-20 23:40 58.35858 -134.58569 36 ft 5 kts 179°
2026-04-20 23:40 58.35815 -134.58584 37 ft 8 kts 210°
2026-04-20 23:40 58.35769 -134.58650 37 ft 9 kts 236°
2026-04-20 23:41 58.35769 -134.58777 35 ft 11 kts 285°
2026-04-20 23:41 58.35790 -134.58937 37 ft 14 kts 284°
2026-04-20 23:41 58.35817 -134.59131 36 ft 16 kts 286°
2026-04-20 23:41 58.35849 -134.59355 38 ft 19 kts 284°
2026-04-20 23:42 58.35871 -134.59602 38 ft 11 kts 249°
2026-04-20 23:42 58.35862 -134.59626 38 ft 0 kts 223°
2026-04-20 23:43 58.35853 -134.59638 38 ft 3 kts 208°
2026-04-20 23:43 58.35826 -134.59656 38 ft 5 kts 198°
2026-04-20 23:43 58.35790 -134.59673 37 ft 3 kts 171°
2026-04-20 23:44 58.35781 -134.59658 39 ft 2 kts 128°
2026-04-20 23:44 58.35778 -134.59638 39 ft 5 kts 106°
2026-04-20 23:44 58.35706 -134.59134 40 ft 85 kts 105°
2026-04-20 23:44 58.35478 -134.57525 42 ft 162 kts 108°
2026-04-20 23:45 58.35203 -134.55384 802 ft 169 kts 103°
2026-04-20 23:45 58.34960 -134.53093 1663 ft 178 kts 110°
2026-04-20 23:45 58.34285 -134.51141 2385 ft 181 kts 154°
2026-04-20 23:45 58.33054 -134.50777 3086 ft 189 kts 198°
2026-04-20 23:46 58.31987 -134.52358 3582 ft 213 kts 238°
2026-04-20 23:46 58.31193 -134.54943 4103 ft 238 kts 245°
2026-04-20 23:46 58.30951 -134.58151 5143 ft 255 kts 281°
2026-04-20 23:46 58.31789 -134.60875 6876 ft 238 kts 309°
2026-04-20 23:47 58.32957 -134.63217 7798 ft 249 kts 307°
2026-04-20 23:47 58.34076 -134.65775 8827 ft 251 kts 304°
2026-04-20 23:47 58.35122 -134.68445 9890 ft 252 kts 298°
2026-04-20 23:47 58.35684 -134.71602 10637 ft 260 kts 277°
2026-04-20 23:48 58.35813 -134.75150 11163 ft 276 kts 274°
2026-04-20 23:48 58.35901 -134.78872 11885 ft 284 kts 273°
2026-04-20 23:48 58.35960 -134.82624 12867 ft 284 kts 272°
2026-04-20 23:48 58.36004 -134.86408 13832 ft 287 kts 272°
2026-04-20 23:49 58.36038 -134.90168 14680 ft 288 kts 272°
2026-04-20 23:49 58.36065 -134.93992 15537 ft 290 kts 272°
2026-04-20 23:49 58.36086 -134.97852 16404 ft 292 kts 272°
2026-04-20 23:49 58.36104 -135.01727 17231 ft 294 kts 272°
2026-04-20 23:50 58.36121 -135.05635 18026 ft 296 kts 272°
2026-04-20 23:50 58.36136 -135.09573 18747 ft 298 kts 272°
2026-04-20 23:50 58.36149 -135.13548 19353 ft 301 kts 272°
2026-04-20 23:50 58.36161 -135.17562 19970 ft 303 kts 272°
2026-04-20 23:51 58.36172 -135.21595 20614 ft 306 kts 272°
2026-04-20 23:51 58.36183 -135.25667 21235 ft 308 kts 272°
2026-04-20 23:51 58.36193 -135.29777 21846 ft 311 kts 272°
2026-04-20 23:51 58.36200 -135.33870 22391 ft 315 kts 271°
2026-04-20 23:52 58.36207 -135.38046 23082 ft 315 kts 271°
2026-04-20 23:52 58.36212 -135.42236 23653 ft 317 kts 271°
2026-04-20 23:52 58.36220 -135.46467 24086 ft 321 kts 272°
2026-04-20 23:52 58.36231 -135.50741 24529 ft 324 kts 271°
2026-04-20 23:53 58.36241 -135.55052 24965 ft 327 kts 271°
2026-04-20 23:53 58.36249 -135.59396 25351 ft 330 kts 271°
2026-04-20 23:53 58.36256 -135.63802 25717 ft 334 kts 271°
2026-04-20 23:53 58.36261 -135.68182 26161 ft 336 kts 271°
2026-04-20 23:54 58.36265 -135.72716 26594 ft 339 kts 271°
2026-04-20 23:54 58.36267 -135.77171 26997 ft 342 kts 271°
2026-04-20 23:54 58.36533 -135.81671 27383 ft 345 kts 285°
2026-04-20 23:54 58.37540 -135.85838 27817 ft 349 kts 295°
2026-04-20 23:55 58.38695 -135.89929 28177 ft 352 kts 295°
2026-04-20 23:55 58.39881 -135.94047 28544 ft 355 kts 295°
2026-04-20 23:55 58.41086 -135.98173 28914 ft 358 kts 296°
2026-04-20 23:55 58.42308 -136.02325 29281 ft 360 kts 296°
2026-04-20 23:56 58.43546 -136.06517 29585 ft 364 kts 296°
2026-04-20 23:56 58.44797 -136.10752 29901 ft 367 kts 296°
2026-04-20 23:56 58.46042 -136.14966 30220 ft 370 kts 296°
2026-04-20 23:56 58.47308 -136.19263 30486 ft 373 kts 296°
2026-04-20 23:57 58.48584 -136.23597 30736 ft 376 kts 296°
2026-04-20 23:57 58.49871 -136.27978 30983 ft 379 kts 296°
2026-04-20 23:57 58.51168 -136.32402 31221 ft 382 kts 296°
2026-04-20 23:57 58.52467 -136.36840 31463 ft 384 kts 296°
2026-04-20 23:58 58.53776 -136.41321 31674 ft 387 kts 296°
2026-04-20 23:58 58.55096 -136.45846 31893 ft 389 kts 296°
2026-04-20 23:58 58.56416 -136.50384 32120 ft 392 kts 296°
2026-04-20 23:58 58.57746 -136.54966 32313 ft 395 kts 296°
2026-04-20 23:59 58.59084 -136.59590 32510 ft 399 kts 296°
2026-04-20 23:59 58.61810 -136.69018 32855 ft 406 kts 296°
2026-04-20 23:59 58.63169 -136.73733 33048 ft 409 kts 296°
2026-04-21 00:00 58.64546 -136.78524 33291 ft 411 kts 296°
2026-04-21 00:00 58.65928 -136.83343 33576 ft 411 kts 296°
2026-04-21 00:00 58.67307 -136.88159 33843 ft 412 kts 296°
2026-04-21 00:00 58.68693 -136.93011 34091 ft 413 kts 296°
2026-04-21 00:01 58.70075 -136.97862 34285 ft 414 kts 296°
2026-04-21 00:01 58.71460 -137.02727 34461 ft 415 kts 296°
2026-04-21 00:01 58.72842 -137.07600 34764 ft 414 kts 295°
2026-04-21 00:01 58.74225 -137.12480 35023 ft 415 kts 295°
2026-04-21 00:02 58.75610 -137.17378 35189 ft 417 kts 295°
2026-04-21 00:02 58.76991 -137.22275 35454 ft 415 kts 295°
2026-04-21 00:02 58.78354 -137.27126 35623 ft 417 kts 295°
2026-04-21 00:02 58.79511 -137.32236 35747 ft 417 kts 290°
2026-04-21 00:03 58.80649 -137.37449 36076 ft 415 kts 289°
2026-04-21 00:03 58.81693 -137.42558 36213 ft 417 kts 292°
2026-04-21 00:03 58.82901 -137.47619 36544 ft 414 kts 291°
2026-04-21 00:03 58.84073 -137.52709 36687 ft 416 kts 291°
2026-04-21 00:04 58.85235 -137.57820 36938 ft 415 kts 291°
2026-04-21 00:04 58.87546 -137.68092 37350 ft 415 kts 290°
2026-04-21 00:04 58.88693 -137.73214 37538 ft 416 kts 290°
2026-04-21 00:05 58.89837 -137.78343 37775 ft 415 kts 291°
2026-04-21 00:05 58.92144 -137.88712 37963 ft 420 kts 291°
2026-04-21 00:05 58.93294 -137.93899 38079 ft 421 kts 291°
2026-04-21 00:06 58.94434 -137.99057 38073 ft 422 kts 291°
2026-04-21 00:06 58.96735 -138.09503 38077 ft 421 kts 291°
2026-04-21 00:07 58.99030 -138.19973 38063 ft 421 kts 291°
2026-04-21 00:07 59.01314 -138.30447 38076 ft 421 kts 290°
2026-04-21 00:08 59.03569 -138.40838 38063 ft 419 kts 290°
2026-04-21 00:08 59.05828 -138.51303 38049 ft 420 kts 290°
2026-04-21 00:09 59.08080 -138.61784 38052 ft 420 kts 290°
2026-04-21 00:09 59.10321 -138.72271 38050 ft 420 kts 290°
2026-04-21 00:10 59.12558 -138.82788 38041 ft 420 kts 290°
2026-04-21 00:10 59.14784 -138.93314 38060 ft 421 kts 290°
2026-04-21 00:11 59.17006 -139.03870 38041 ft 421 kts 290°
2026-04-21 00:11 59.19206 -139.14376 38048 ft 421 kts 290°
2026-04-21 00:12 59.21411 -139.24962 38036 ft 421 kts 290°
2026-04-21 00:12 59.23252 -139.33841 38030 ft 421 kts 290°
2026-04-21 00:13 59.25427 -139.44384 38030 ft 421 kts 290°
2026-04-21 00:13 59.27610 -139.55018 38029 ft 421 kts 289°
2026-04-21 00:14 59.29784 -139.65666 38034 ft 422 kts 289°
2026-04-21 00:14 59.31948 -139.76319 38023 ft 421 kts 289°
2026-04-21 00:15 59.34107 -139.87005 38023 ft 421 kts 289°
2026-04-21 00:15 59.36249 -139.97668 38016 ft 419 kts 289°
2026-04-21 00:16 59.38360 -140.08224 38043 ft 419 kts 289°
2026-04-21 00:16 59.40484 -140.18910 38014 ft 420 kts 289°
2026-04-21 00:17 59.42599 -140.29602 38015 ft 420 kts 289°
2026-04-21 00:17 59.44703 -140.40299 38013 ft 420 kts 289°
2026-04-21 00:18 59.46800 -140.51020 38004 ft 420 kts 289°
2026-04-21 00:18 59.48876 -140.61685 38008 ft 420 kts 289°
2026-04-21 00:19 59.50953 -140.72419 38017 ft 420 kts 289°
2026-04-21 00:19 59.53030 -140.83213 38006 ft 420 kts 288°
2026-04-21 00:20 59.55098 -140.94013 37996 ft 420 kts 288°
2026-04-21 00:20 59.57142 -141.04753 37999 ft 420 kts 288°
2026-04-21 00:21 59.59190 -141.15569 38001 ft 420 kts 288°
2026-04-21 00:21 59.61228 -141.26399 37993 ft 420 kts 288°
2026-04-21 00:22 59.63255 -141.37223 37995 ft 421 kts 288°
2026-04-21 00:22 59.65281 -141.48107 37984 ft 421 kts 288°
2026-04-21 00:23 59.67282 -141.58920 37992 ft 421 kts 288°
2026-04-21 00:23 59.69287 -141.69812 37985 ft 421 kts 288°
2026-04-21 00:24 59.71284 -141.80729 37984 ft 421 kts 288°
2026-04-21 00:24 59.73270 -141.91641 38004 ft 421 kts 288°
2026-04-21 00:25 59.75255 -142.02613 37984 ft 423 kts 288°
2026-04-21 00:25 59.77231 -142.13601 37980 ft 423 kts 288°
2026-04-21 00:26 59.79190 -142.24555 37972 ft 423 kts 288°
2026-04-21 00:26 59.81148 -142.35569 37972 ft 423 kts 288°
2026-04-21 00:27 59.83098 -142.46603 37969 ft 423 kts 288°
2026-04-21 00:27 59.85039 -142.57650 37977 ft 423 kts 288°
2026-04-21 00:28 59.86976 -142.68740 37959 ft 424 kts 287°
2026-04-21 00:28 59.88900 -142.79823 37958 ft 424 kts 287°
2026-04-21 00:29 59.90816 -142.90928 37955 ft 424 kts 287°
2026-04-21 00:29 59.92723 -143.02048 37949 ft 424 kts 287°
2026-04-21 00:30 59.94610 -143.13115 37952 ft 424 kts 287°
2026-04-21 00:30 59.96497 -143.24248 37952 ft 424 kts 287°
2026-04-21 00:31 59.98374 -143.35396 37951 ft 424 kts 287°
2026-04-21 00:31 60.00245 -143.46574 37936 ft 424 kts 287°
2026-04-21 00:32 60.02107 -143.57768 37935 ft 424 kts 287°
2026-04-21 00:32 60.03958 -143.68964 37935 ft 424 kts 287°
2026-04-21 00:33 60.05790 -143.80113 37927 ft 424 kts 287°
2026-04-21 00:33 60.07625 -143.91355 37927 ft 424 kts 287°
2026-04-21 00:34 60.09447 -144.02586 37930 ft 424 kts 287°
2026-04-21 00:34 60.11260 -144.13833 37930 ft 424 kts 287°
2026-04-21 00:35 60.13065 -144.25097 37935 ft 424 kts 286°
2026-04-21 00:35 60.14846 -144.36287 37931 ft 424 kts 286°
2026-04-21 00:36 60.16630 -144.47572 37933 ft 423 kts 286°
2026-04-21 00:36 60.18399 -144.58828 37923 ft 422 kts 286°
2026-04-21 00:37 60.20156 -144.70084 37923 ft 422 kts 286°
2026-04-21 00:37 60.21906 -144.81365 37925 ft 422 kts 285°
2026-04-21 00:38 60.23632 -144.92570 37929 ft 422 kts 285°
2026-04-21 00:38 60.25361 -145.03864 37927 ft 422 kts 285°
2026-04-21 00:39 60.27081 -145.15169 37938 ft 422 kts 285°
2026-04-21 00:39 60.28795 -145.26522 37934 ft 423 kts 285°
2026-04-21 00:40 60.30501 -145.37886 37929 ft 423 kts 285°
2026-04-21 00:40 60.32197 -145.49269 37918 ft 423 kts 285°
2026-04-21 00:41 60.33874 -145.60600 37917 ft 423 kts 285°
2026-04-21 00:41 60.35554 -145.72002 37917 ft 423 kts 285°
2026-04-21 00:42 60.37227 -145.83427 37924 ft 424 kts 285°
2026-04-21 00:42 60.38894 -145.94885 37917 ft 425 kts 285°
2026-04-21 00:43 60.40543 -146.06289 37917 ft 425 kts 285°
2026-04-21 00:43 60.42196 -146.17801 37914 ft 425 kts 285°
2026-04-21 00:44 60.43838 -146.29309 37913 ft 425 kts 285°
2026-04-21 00:44 60.45467 -146.40803 37899 ft 425 kts 285°
2026-04-21 00:45 60.47968 -146.58021 37616 ft 425 kts 292°
2026-04-21 00:45 60.49410 -146.63237 37366 ft 425 kts 302°
2026-04-21 00:45 60.51113 -146.68139 37151 ft 424 kts 303°
2026-04-21 00:46 60.52838 -146.72955 36917 ft 422 kts 303°
2026-04-21 00:46 60.54581 -146.77743 36681 ft 419 kts 304°
2026-04-21 00:46 60.56317 -146.82463 36361 ft 413 kts 304°
2026-04-21 00:46 60.58041 -146.87138 35728 ft 413 kts 303°
2026-04-21 00:47 60.59770 -146.91821 35036 ft 415 kts 303°
2026-04-21 00:47 60.61507 -146.96528 34453 ft 414 kts 303°
2026-04-21 00:47 60.63227 -147.01195 33985 ft 411 kts 303°
2026-04-21 00:47 60.64889 -147.05821 33394 ft 408 kts 302°
2026-04-21 00:48 60.66543 -147.10525 32762 ft 407 kts 302°
2026-04-21 00:48 60.68194 -147.15216 32246 ft 403 kts 302°
2026-04-21 00:48 60.69812 -147.19814 31773 ft 392 kts 302°
2026-04-21 00:48 60.71373 -147.24255 31334 ft 378 kts 302°
2026-04-21 00:49 60.72878 -147.28547 30897 ft 365 kts 302°
2026-04-21 00:49 60.74338 -147.32717 30477 ft 354 kts 301°
2026-04-21 00:49 60.75760 -147.36787 30075 ft 351 kts 301°
2026-04-21 00:49 60.77176 -147.40846 29571 ft 350 kts 301°
2026-04-21 00:50 60.78584 -147.44889 29123 ft 347 kts 301°
2026-04-21 00:50 60.79974 -147.48887 28724 ft 343 kts 301°
2026-04-21 00:50 60.81347 -147.52845 28347 ft 338 kts 302°
2026-04-21 00:50 60.82687 -147.56711 27960 ft 335 kts 302°
2026-04-21 00:51 60.84027 -147.60584 27591 ft 331 kts 302°
2026-04-21 00:51 60.85353 -147.64425 27220 ft 328 kts 302°
2026-04-21 00:51 60.86682 -147.68281 26859 ft 333 kts 302°
2026-04-21 00:51 60.88029 -147.72195 26479 ft 337 kts 302°
2026-04-21 00:52 60.89384 -147.76137 26119 ft 337 kts 302°
2026-04-21 00:52 60.90732 -147.80066 25741 ft 336 kts 302°
2026-04-21 00:52 60.92076 -147.83993 25402 ft 335 kts 302°
2026-04-21 00:52 60.93410 -147.87892 25040 ft 332 kts 302°
2026-04-21 00:53 60.94730 -147.91769 24683 ft 329 kts 302°
2026-04-21 00:53 60.96040 -147.95610 24355 ft 326 kts 302°
2026-04-21 00:53 60.97340 -147.99434 23996 ft 325 kts 302°
2026-04-21 00:53 60.98632 -148.03235 23657 ft 323 kts 302°
2026-04-21 00:54 60.99916 -148.07025 23289 ft 322 kts 303°
2026-04-21 00:54 61.01175 -148.10745 22895 ft 319 kts 303°
2026-04-21 00:54 61.02438 -148.14483 22548 ft 315 kts 303°
2026-04-21 00:54 61.03685 -148.18176 22215 ft 311 kts 303°
2026-04-21 00:55 61.04910 -148.21814 21903 ft 306 kts 302°
2026-04-21 00:55 61.06049 -148.25496 21692 ft 304 kts 300°
2026-04-21 00:55 61.07184 -148.29272 21599 ft 311 kts 300°
2026-04-21 00:55 61.08336 -148.33120 21468 ft 316 kts 300°
2026-04-21 00:56 61.09492 -148.36986 21404 ft 317 kts 300°
2026-04-21 00:56 61.10654 -148.40873 21321 ft 317 kts 300°
2026-04-21 00:56 61.11818 -148.44779 20784 ft 319 kts 299°
2026-04-21 00:56 61.12953 -148.48600 20295 ft 313 kts 299°
2026-04-21 00:57 61.14084 -148.52408 19790 ft 309 kts 299°
2026-04-21 00:57 61.15206 -148.56194 19305 ft 307 kts 299°
2026-04-21 00:57 61.16321 -148.59960 18834 ft 306 kts 299°
2026-04-21 00:57 61.17425 -148.63697 18392 ft 303 kts 299°
2026-04-21 00:58 61.18522 -148.67418 17874 ft 300 kts 299°
2026-04-21 00:58 61.19607 -148.71100 17310 ft 298 kts 299°
2026-04-21 00:58 61.20687 -148.74775 16779 ft 297 kts 299°
2026-04-21 00:58 61.21762 -148.78428 16251 ft 295 kts 299°
2026-04-21 00:59 61.22827 -148.82058 15728 ft 294 kts 299°
2026-04-21 00:59 61.23882 -148.85686 15216 ft 292 kts 299°
2026-04-21 00:59 61.24912 -148.89248 14715 ft 291 kts 298°
2026-04-21 00:59 61.25946 -148.92826 14211 ft 289 kts 299°
2026-04-21 01:00 61.26982 -148.96405 13708 ft 288 kts 298°
2026-04-21 01:00 61.28010 -148.99969 13157 ft 287 kts 298°
2026-04-21 01:00 61.29033 -149.03513 12610 ft 284 kts 299°
2026-04-21 01:00 61.30048 -149.07028 12064 ft 283 kts 299°
2026-04-21 01:01 61.31060 -149.10523 11569 ft 281 kts 299°
2026-04-21 01:01 61.32062 -149.14021 11036 ft 280 kts 298°
2026-04-21 01:01 61.32729 -149.16363 10671 ft 278 kts 298°
2026-04-21 01:01 61.33717 -149.19807 10164 ft 275 kts 299°
2026-04-21 01:02 61.34676 -149.23206 9662 ft 274 kts 298°
2026-04-21 01:02 61.35644 -149.26641 9145 ft 273 kts 298°
2026-04-21 01:02 61.36618 -149.30049 8616 ft 273 kts 299°
2026-04-21 01:02 61.37646 -149.33363 8080 ft 272 kts 305°
2026-04-21 01:03 61.39080 -149.35956 7507 ft 274 kts 324°
2026-04-21 01:03 61.40652 -149.38201 7002 ft 272 kts 320°
2026-04-21 01:03 61.42094 -149.40646 6436 ft 270 kts 315°
2026-04-21 01:03 61.43448 -149.43318 5905 ft 267 kts 311°
2026-04-21 01:04 61.44710 -149.46154 5364 ft 265 kts 307°
2026-04-21 01:04 61.45883 -149.49106 4833 ft 263 kts 304°
2026-04-21 01:04 61.46972 -149.52162 4282 ft 261 kts 301°
2026-04-21 01:04 61.47975 -149.55313 3763 ft 259 kts 298°
2026-04-21 01:05 61.48893 -149.58554 3244 ft 258 kts 295°
2026-04-21 01:05 61.49722 -149.61832 3037 ft 254 kts 293°
2026-04-21 01:05 61.50474 -149.65186 3025 ft 255 kts 290°
2026-04-21 01:05 61.51150 -149.68618 3009 ft 251 kts 288°
2026-04-21 01:06 61.51717 -149.71888 3027 ft 228 kts 285°
2026-04-21 01:06 61.52178 -149.74904 3002 ft 208 kts 282°
2026-04-21 01:06 61.52560 -149.77793 3037 ft 205 kts 280°
2026-04-21 01:06 61.52882 -149.80697 3045 ft 204 kts 277°
2026-04-21 01:07 61.53147 -149.83620 3025 ft 203 kts 275°
2026-04-21 01:07 61.53353 -149.86522 3014 ft 196 kts 273°
2026-04-21 01:07 61.53490 -149.89197 3085 ft 182 kts 270°
2026-04-21 01:07 61.53577 -149.91835 3086 ft 181 kts 268°
2026-04-21 01:08 61.53617 -149.94466 3039 ft 180 kts 266°
2026-04-21 01:08 61.53616 -149.97083 2993 ft 179 kts 264°
2026-04-21 01:08 61.53572 -149.99699 2988 ft 179 kts 263°
2026-04-21 01:08 61.53487 -150.02306 2966 ft 179 kts 261°
2026-04-21 01:09 61.53364 -150.04903 2960 ft 178 kts 259°
2026-04-21 01:09 61.53197 -150.07485 2964 ft 178 kts 257°
2026-04-21 01:09 61.52990 -150.10037 2962 ft 177 kts 255°
2026-04-21 01:09 61.52742 -150.12569 2968 ft 177 kts 253°
2026-04-21 01:10 61.52449 -150.15075 2966 ft 176 kts 249°
2026-04-21 01:10 61.51823 -150.17161 2931 ft 170 kts 219°
2026-04-21 01:10 61.50795 -150.18322 2958 ft 170 kts 194°
2026-04-21 01:10 61.49618 -150.18404 2971 ft 171 kts 171°
2026-04-21 01:11 61.48520 -150.17525 2966 ft 161 kts 160°
2026-04-21 01:11 61.47481 -150.16881 2985 ft 153 kts 168°
2026-04-21 01:11 61.46456 -150.16334 2978 ft 152 kts 168°
2026-04-21 01:11 61.45437 -150.15780 2977 ft 151 kts 168°
2026-04-21 01:12 61.44419 -150.15220 2962 ft 151 kts 168°
2026-04-21 01:12 61.43402 -150.14655 2961 ft 151 kts 168°
2026-04-21 01:12 61.42383 -150.14085 2969 ft 151 kts 168°
2026-04-21 01:12 61.41366 -150.13514 2970 ft 151 kts 167°
2026-04-21 01:13 61.40349 -150.12940 2964 ft 151 kts 167°
2026-04-21 01:13 61.39331 -150.12364 2966 ft 151 kts 167°
2026-04-21 01:13 61.38314 -150.11790 2964 ft 152 kts 167°
2026-04-21 01:13 61.37293 -150.11211 2929 ft 152 kts 167°
2026-04-21 01:14 61.36277 -150.10627 2870 ft 150 kts 168°
2026-04-21 01:14 61.35293 -150.10068 2772 ft 147 kts 168°
2026-04-21 01:14 61.34365 -150.09541 2662 ft 129 kts 168°
2026-04-21 01:14 61.33517 -150.09064 2611 ft 123 kts 169°
2026-04-21 01:15 61.32694 -150.08599 2530 ft 122 kts 169°
2026-04-21 01:15 61.31877 -150.08139 2446 ft 121 kts 169°
2026-04-21 01:15 61.31066 -150.07682 2334 ft 121 kts 169°
2026-04-21 01:15 61.30254 -150.07223 2197 ft 121 kts 169°
2026-04-21 01:16 61.29445 -150.06768 2050 ft 121 kts 168°
2026-04-21 01:16 61.28633 -150.06310 1893 ft 121 kts 168°
2026-04-21 01:16 61.27829 -150.05858 1751 ft 122 kts 168°
2026-04-21 01:16 61.27015 -150.05401 1616 ft 121 kts 167°
2026-04-21 01:17 61.26198 -150.04942 1517 ft 122 kts 167°
2026-04-21 01:17 61.25383 -150.04483 1368 ft 121 kts 167°
2026-04-21 01:17 61.24567 -150.04025 1218 ft 122 kts 167°
2026-04-21 01:17 61.23747 -150.03566 1033 ft 122 kts 166°
2026-04-21 01:18 61.22924 -150.03104 850 ft 123 kts 166°
2026-04-21 01:18 61.22092 -150.02636 669 ft 123 kts 165°
2026-04-21 01:18 61.21264 -150.02174 471 ft 124 kts 166°
2026-04-21 01:18 61.20427 -150.01713 271 ft 125 kts 168°
2026-04-21 01:19 61.19608 -150.01246 145 ft 118 kts 166°
2026-04-21 01:19 61.18898 -150.00851 121 ft 90 kts 165°
2026-04-21 01:19 61.18468 -150.00620 118 ft 42 kts 165°
2026-04-21 01:19 61.18316 -150.00539 118 ft 4 kts 166°
2026-04-21 01:20 61.18265 -150.00506 118 ft 16 kts 163°
2026-04-21 01:20 61.18126 -150.00427 118 ft 24 kts 165°
2026-04-21 01:20 61.17962 -150.00316 121 ft 26 kts 154°
2026-04-21 01:20 61.17812 -150.00066 109 ft 30 kts 134°
2026-04-21 01:21 61.17747 -149.99933 120 ft 0 kts 136°
2026-04-21 01:23 61.17739 -149.99918 118 ft 6 kts 137°
2026-04-21 01:24 61.17674 -149.99829 119 ft 15 kts 156°
2026-04-21 01:24 61.17572 -149.99765 121 ft 14 kts 161°
2026-04-21 01:24 61.17486 -149.99717 122 ft 11 kts 165°
2026-04-21 01:24 61.17409 -149.99675 121 ft 11 kts 165°
2026-04-21 01:25 61.17333 -149.99631 121 ft 12 kts 163°
2026-04-21 01:25 61.17291 -149.99528 120 ft 9 kts 95°
2026-04-21 01:25 61.17290 -149.99375 123 ft 13 kts 91°
2026-04-21 01:25 61.17290 -149.99176 123 ft 8 kts 84°
2026-04-21 01:26 61.17293 -149.99117 121 ft 0 kts 78°
2026-04-21 01:26 61.17294 -149.99113 121 ft 1 kts 78°
2026-04-21 01:26 61.17295 -149.99091 119 ft 0 kts 81°
2026-04-21 01:27 61.17295 -149.99090 119 ft 1 kts 80°
2026-04-21 01:28 61.17302 -149.99051 123 ft 3 kts 55°
2026-04-21 01:28 61.17321 -149.98993 123 ft 7 kts 63°
2026-04-21 01:28 61.17333 -149.98881 123 ft 9 kts 91°
2026-04-21 01:28 61.17337 -149.98738 123 ft 11 kts 78°
2026-04-21 01:29 61.17381 -149.98611 123 ft 10 kts 37°
2026-04-21 01:29 61.17446 -149.98540 121 ft 12 kts 33°
2026-04-21 01:29 61.17468 -149.98463 120 ft 7 kts 84°
2026-04-21 01:29 61.17468 -149.98431 118 ft 0 kts 88°